TimeCST,TemperatureF,Dew PointF,Humidity,Sea Level PressureIn,VisibilityMPH,Wind Direction,Wind SpeedMPH,Gust SpeedMPH,PrecipitationIn,Events,Conditions,WindDirDegrees,DateUTC
12:52 AM,35.1,30.0,82,30.12,6.0,SSE,11.5,-,N/A,,Haze,150,2013-02-09 06:52:00
1:52 AM,35.1,30.0,82,30.09,5.0,SSE,11.5,-,N/A,,Haze,150,2013-02-09 07:52:00
2:52 AM,34.0,30.0,85,30.07,5.0,SE,10.4,-,N/A,,Clear,140,2013-02-09 08:52:00
3:52 AM,33.1,28.9,85,30.05,5.0,ESE,6.9,-,N/A,,Clear,120,2013-02-09 09:52:00
4:52 AM,34.0,30.0,85,30.03,5.0,SE,9.2,-,N/A,,Clear,140,2013-02-09 10:52:00
5:52 AM,34.0,28.9,82,30.02,6.0,SE,9.2,-,N/A,,Haze,140,2013-02-09 11:52:00
6:52 AM,34.0,30.0,85,30.01,6.0,SSE,9.2,-,N/A,,Clear,150,2013-02-09 12:52:00
7:52 AM,37.9,32.0,79,30.02,7.0,South,16.1,-,N/A,,Clear,170,2013-02-09 13:52:00
8:52 AM,39.0,33.1,79,30.01,9.0,SSE,17.3,-,N/A,,Clear,160,2013-02-09 14:52:00
9:52 AM,42.1,35.1,76,30.00,10.0,SSE,19.6,-,N/A,,Mostly Cloudy,160,2013-02-09 15:52:00
10:52 AM,44.1,37.0,76,29.98,9.0,South,20.7,26.5,N/A,,Overcast,170,2013-02-09 16:52:00
11:52 AM,46.0,37.9,73,29.94,10.0,South,19.6,27.6,N/A,,Mostly Cloudy,170,2013-02-09 17:52:00
12:02 PM,46.4,37.4,71,29.93,10.0,South,23.0,28.8,N/A,,Overcast,170,2013-02-09 18:02:00
12:35 PM,48.2,37.4,66,29.90,10.0,South,25.3,31.1,N/A,,Overcast,170,2013-02-09 18:35:00
12:45 PM,48.2,37.4,66,29.90,10.0,South,24.2,32.2,N/A,,Overcast,180,2013-02-09 18:45:00
12:52 PM,48.0,37.9,68,29.89,10.0,South,25.3,33.4,N/A,,Overcast,180,2013-02-09 18:52:00
1:52 PM,46.0,39.0,76,29.83,10.0,SSE,19.6,33.4,0.00,,Overcast,150,2013-02-09 19:52:00
1:59 PM,46.4,39.2,76,29.83,10.0,SSE,21.9,27.6,N/A,,Overcast,160,2013-02-09 19:59:00
2:52 PM,46.9,37.0,68,29.79,10.0,SSE,24.2,34.5,N/A,,Overcast,160,2013-02-09 20:52:00
3:52 PM,45.0,35.1,68,29.76,10.0,SSE,21.9,35.7,N/A,,Overcast,160,2013-02-09 21:52:00
4:05 PM,44.6,35.6,71,29.77,10.0,SSE,28.8,34.5,N/A,,Overcast,160,2013-02-09 22:05:00
4:52 PM,43.0,36.0,76,29.75,10.0,SSE,18.4,29.9,N/A,,Overcast,160,2013-02-09 22:52:00
5:08 PM,42.8,35.6,76,29.74,7.0,SSE,26.5,-,N/A,,Overcast,150,2013-02-09 23:08:00
5:48 PM,41.0,37.4,87,29.72,4.0,SSE,19.6,27.6,N/A,,Overcast,150,2013-02-09 23:48:00
5:52 PM,41.0,37.0,86,29.73,5.0,SSE,18.4,-,N/A,,Overcast,150,2013-02-09 23:52:00
6:52 PM,39.9,37.9,93,29.73,3.0,SSE,24.2,29.9,N/A,,Overcast,160,2013-02-10 00:52:00
7:52 PM,39.9,37.0,89,29.69,3.0,SSE,24.2,29.9,N/A,,Overcast,150,2013-02-10 01:52:00
8:29 PM,39.2,37.4,93,29.68,2.5,SSE,24.2,31.1,N/A,,Overcast,150,2013-02-10 02:29:00
8:52 PM,39.9,37.9,93,29.67,1.8,SSE,24.2,33.4,N/A,,Overcast,150,2013-02-10 02:52:00
9:52 PM,39.9,37.9,93,29.64,1.2,SSE,24.2,31.1,N/A,,Overcast,150,2013-02-10 03:52:00
10:49 PM,41.0,39.2,93,29.65,2.0,South,18.4,-,0.00,Rain-Thunderstorm,Light Rain,170,2013-02-10 04:49:00
10:52 PM,41.0,39.0,93,29.65,2.0,South,17.3,-,0.00,Rain-Thunderstorm,Light Rain,180,2013-02-10 04:52:00
11:06 PM,42.8,39.2,87,29.65,3.0,South,13.8,-,0.00,Rain-Thunderstorm,Light Rain,180,2013-02-10 05:06:00
11:18 PM,42.8,39.2,87,29.65,3.0,South,18.4,24.2,0.00,,Overcast,180,2013-02-10 05:18:00
11:49 PM,42.8,41.0,93,29.61,2.5,South,21.9,29.9,0.00,Rain,Light Rain,170,2013-02-10 05:49:00
11:52 PM,43.0,41.0,93,29.60,2.5,South,20.7,29.9,0.00,Rain,Light Rain,170,2013-02-10 05:52:00